DW0529 Weather Reports


Display with metric or nautical units.
time (UTC)temp
F
wind
direction
speed
MPH
gust
MPH
rain 1hr
in
rain 24hr
in
rain mn
in
humidity
%
barometer
mb
20260903112930 61 333 0.0 0.0 0.00 0.00 0.00 92 969.3
20260903105635 61 331 0.0 0.0 0.00 0.00 0.00 90 969.5
20260903104621 61 330 0.0 0.0 0.00 0.00 0.00 89 969.5
20260903103646 61 330 0.0 0.0 0.00 0.00 0.00 89 969.4
20260903102710 61 0 0.0 0.0 0.00 0.00 0.00 88 969.5
20260903101733 61 330 0.0 0.0 0.00 0.00 0.00 87 969.6
20260903100710 61 330 0.0 0.0 0.00 0.00 0.00 85 969.6
20260903095726 61 0 0.0 0.0 0.00 0.00 0.00 84 969.5
20260903094751 61 0 0.0 0.0 0.00 0.00 0.00 84 969.6
20260903093718 61 0 0.0 0.0 0.00 0.00 0.00 83 969.6
20260903092740 61 0 0.0 0.0 0.00 0.00 0.00 83 969.8
20260903091754 62 331 0.0 0.0 0.00 0.00 0.00 83 969.9
20260903090735 62 332 0.0 0.0 0.00 0.00 0.00 82 969.9
20260903084553 62 332 0.0 0.0 0.00 0.00 0.00 81 970.1
20260903083535 62 332 0.0 0.0 0.00 0.00 0.00 80 970.2
20260903080335 63 333 0.0 0.0 0.00 0.00 0.00 73 970.5
20260903075326 63 333 0.0 0.0 0.00 0.00 0.00 71 970.4
20260903074329 63 333 0.0 0.0 0.00 0.00 0.00 69 970.4
20260903073304 64 333 0.0 0.0 0.00 0.00 0.00 66 970.3
20260903072319 64 333 0.0 0.0 0.00 0.00 0.00 62 970.4
20260903071327 64 332 0.0 0.0 0.00 0.00 0.00 61 970.4
20260903070335 64 331 0.0 0.0 0.00 0.00 0.00 58 970.4
20260903065325 65 331 0.0 0.0 0.00 0.00 0.00 56 970.4
20260903064258 65 331 0.0 0.0 0.00 0.00 0.00 54 970.3
20260903063316 66 330 0.0 0.0 0.00 0.00 0.00 54 970.3
20260903062306 66 332 0.0 0.0 0.00 0.00 0.00 52 970.3
20260903061309 67 333 0.0 2.0 0.00 0.00 0.00 51 970.2
20260903060326 67 333 0.0 2.0 0.00 0.00 0.00 51 970.1
20260903054155 67 330 0.0 0.0 0.00 0.00 0.00 50 970.2
20260903045648 68 330 1.0 3.0 0.00 0.00 0.00 48 970.3
20260903044624 68 272 0.0 2.0 0.00 0.00 0.00 48 970.3
20260903043556 68 272 0.0 2.0 0.00 0.00 0.00 48 970.3
20260903042533 68 272 0.0 1.0 0.00 0.00 0.00 48 970.2
20260903040402 68 271 1.0 2.0 0.00 0.00 0.00 48 970.2
20260903032000 67 207 0.0 0.0 0.00 0.00 0.00 54 969.8
20260903031012 66 207 0.0 0.0 0.00 0.00 0.00 61 969.7
20260903025943 66 207 0.0 0.0 0.00 0.00 0.00 65 969.7
20260903024920 66 207 0.0 0.0 0.00 0.00 0.00 66 969.7
20260903022724 68 0 0.0 0.0 0.00 0.00 0.00 63 969.6
20260903021718 69 0 0.0 0.0 0.00 0.00 0.00 61 969.7
20260903014417 72 0 0.0 0.0 0.00 0.00 0.00 55 969.6
20260903013352 73 207 0.0 0.0 0.00 0.00 0.00 55 969.6
20260903011259 74 205 0.0 2.0 0.00 0.00 0.00 54 969.6
20260903010321 74 237 0.0 4.0 0.00 0.00 0.00 54 969.7
20260903002002 75 0 1.0 4.0 0.00 0.00 0.00 50 969.6
20260903000948 76 188 1.0 6.0 0.00 0.00 0.00 48 969.7
20260903000012 76 229 1.0 8.0 0.00 0.00 0.00 45 969.7
20260902233806 75 207 2.0 6.0 0.00 0.00 0.00 46 969.7
20260902232829 76 188 1.0 6.0 0.00 0.00 0.00 45 969.8
20260902230639 77 217 2.0 6.0 0.00 0.00 0.00 42 970.0
20260902225702 77 176 2.0 6.0 0.00 0.00 0.00 36 970.0
20260902224704 77 202 2.0 6.0 0.00 0.00 0.00 33 970.1
20260902222637 78 205 2.0 9.0 0.00 0.00 0.00 32 970.2
20260902214151 78 209 2.0 9.0 0.00 0.00 0.00 45 970.5
20260902213152 79 207 2.0 9.0 0.00 0.00 0.00 45 970.6
20260902212126 79 219 2.0 8.0 0.00 0.00 0.00 45 970.6
20260902211142 78 175 3.0 8.0 0.00 0.00 0.00 46 970.7
20260902210143 78 223 2.0 7.0 0.00 0.00 0.00 45 970.8
20260902205121 79 209 1.0 4.0 0.00 0.00 0.00 46 970.9
20260902204144 78 234 1.0 5.0 0.00 0.00 0.00 45 971.1
20260902203154 78 221 1.0 7.0 0.00 0.00 0.00 45 971.2
20260902202218 78 192 2.0 7.0 0.00 0.00 0.00 45 971.2
20260902201214 77 208 2.0 6.0 0.00 0.00 0.00 45 971.2
20260902200215 77 167 1.0 7.0 0.00 0.00 0.00 46 971.3
20260902192033 75 162 1.0 6.0 0.00 0.00 0.00 53 971.6
20260902191054 75 216 1.0 6.0 0.00 0.00 0.00 54 971.7
20260902185048 75 192 0.0 3.0 0.00 0.00 0.00 57 971.9
20260902184031 75 231 1.0 5.0 0.00 0.00 0.00 57 972.0
20260902180924 73 190 1.0 6.0 0.00 0.00 0.00 56 972.0
20260902174814 73 220 1.0 5.0 0.00 0.00 0.00 55 971.9
20260902173745 73 239 0.0 5.0 0.00 0.00 0.00 57 971.9
20260902172807 72 175 0.0 2.0 0.00 0.00 0.00 60 972.0
20260902170824 70 206 0.0 2.0 0.00 0.00 0.00 65 971.9
20260902164752 69 240 0.0 4.0 0.00 0.00 0.00 68 971.7
20260902163723 68 219 0.0 3.0 0.00 0.00 0.00 71 971.6
20260902161643 66 220 0.0 1.0 0.00 0.00 0.00 75 971.7
20260902160700 65 213 0.0 0.0 0.00 0.00 0.00 80 971.7
20260902155659 64 212 0.0 3.0 0.00 0.00 0.00 84 971.7
20260902154716 62 212 0.0 1.0 0.00 0.00 0.00 89 971.6
20260902153728 61 211 0.0 3.0 0.00 0.00 0.00 92 971.5
20260902151753 60 121 0.0 0.0 0.00 0.00 0.00 96 971.5
20260902145642 60 121 0.0 0.0 0.00 0.00 0.00 97 971.5
20260902144639 59 119 0.0 0.0 0.00 0.00 0.00 97 971.5
20260902143614 59 119 0.0 0.0 0.00 0.00 0.00 97 971.5
20260902142612 58 119 0.0 0.0 0.00 0.00 0.00 96 971.4
20260902141632 58 119 0.0 0.0 0.00 0.00 0.00 96 971.3
20260902140636 58 120 0.0 0.0 0.00 0.00 0.00 96 971.1
20260902135602 58 120 0.0 0.0 0.00 0.00 0.00 96 970.9
20260902133429 58 120 0.0 0.0 0.00 0.00 0.00 96 970.9
20260902132418 58 119 0.0 0.0 0.00 0.00 0.00 96 970.9
20260902131429 59 119 0.0 0.0 0.00 0.00 0.00 96 970.8
20260902130448 59 119 0.0 0.0 0.00 0.00 0.00 96 970.8
20260902125415 59 119 0.0 0.0 0.00 0.00 0.00 96 970.9
20260902124408 59 119 0.0 0.0 0.00 0.00 0.00 96 970.9
20260902123342 59 119 0.0 0.0 0.00 0.00 0.00 96 970.8
20260902122350 59 119 0.0 0.0 0.00 0.00 0.00 96 970.9
20260902120220 59 119 0.0 0.0 0.00 0.00 0.00 95 971.0
20260902115241 59 119 0.0 0.0 0.00 0.00 0.00 95 971.1
20260902114237 59 119 0.0 0.0 0.00 0.00 0.00 95 971.1